User: anonymous   Login
Location: Lawrence
(38.9720°N, 95.2350°W)
Time: 16:19:16
(UTC-06:00)
Language:

ALOS - Orbit

View from above orbital plane
View from above orbital plane
View from above satellite
View from above satellite

Ground track
Ground track

The orbit data is extracted from the following two-line orbital elements,

1 28931U 06002A   15024.87361060  .00000598  00000-0  12916-3 0  1664
2 28931 097.9546 079.8803 0001384 136.0269 224.1042 14.61628542479704
Epoch (UTC): 24 January 2015 20:57:59
Eccentricity: 0.0001384
inclination: 97.9546°
perigee height: 687 km
apogee height: 689 km
right ascension of ascending node: 79.8803°
argument of perigee: 136.0269°
revolutions per day: 14.61628542
mean anomaly at epoch: 224.1042°
orbit number at epoch: 47970

The dashed part of the orbit path shows where the satellite is in the earth's shadow,  

DLR